This is the latest recevied weather packets stored in our database for station/object F4IEI-10. If no packets are shown the sender has not sent any weather packets the latest 10 day(s).
| Time | Temp. | Humidity | Pressure | Rain* | Wind** | Luminosity | Snow |
|---|---|---|---|---|---|---|---|
| 1777456709 | 17.78° C | 54% | 1019.2 hPa | - | - | - | - |
| 1777455809 | 17.22° C | 54% | 1019.2 hPa | - | - | - | - |
| 1777454908 | 16.67° C | 55% | 1019.1 hPa | - | - | - | - |
| 1777454009 | 16.11° C | 56% | 1019.2 hPa | - | - | - | - |
| 1777453109 | 15.56° C | 56% | 1019.1 hPa | - | - | - | - |
| 1777452205 | 16.11° C | 56% | 1019.2 hPa | - | - | - | - |
| 1777451304 | 15.56° C | 58% | 1019.3 hPa | - | - | - | - |
| 1777450404 | 13.89° C | 60% | 1019.2 hPa | - | - | - | - |
| 1777449504 | 13.33° C | 61% | 1019.2 hPa | - | - | - | - |
| 1777448604 | 13.33° C | 64% | 1019 hPa | - | - | - | - |
| 1777447704 | 12.78° C | 66% | 1019 hPa | - | - | - | - |
| 1777446804 | 12.22° C | 66% | 1019 hPa | - | - | - | - |
| 1777445904 | 12.22° C | 65% | 1018.9 hPa | - | - | - | - |
| 1777445004 | 12.22° C | 66% | 1018.8 hPa | - | - | - | - |
| 1777444104 | 12.22° C | 64% | 1018.6 hPa | - | - | - | - |
| 1777443204 | 12.78° C | 67% | 1018.4 hPa | - | - | - | - |
| 1777442304 | 11.67° C | 70% | 1018.4 hPa | - | - | - | - |
| 1777441404 | 10.56° C | 71% | 1018.3 hPa | - | - | - | - |
| 1777440504 | 10° C | 75% | 1018.3 hPa | - | - | - | - |
| 1777439604 | 8.89° C | 77% | 1018.3 hPa | - | - | - | - |
| 1777438704 | 8.33° C | 79% | 1018.2 hPa | - | - | - | - |
| 1777437811 | 7.78° C | 80% | 1018.1 hPa | - | - | - | - |
| 1777436904 | 7.78° C | 80% | 1018 hPa | - | - | - | - |
| 1777436005 | 8.33° C | 79% | 1018.1 hPa | - | - | - | - |
| 1777435105 | 8.33° C | 78% | 1018 hPa | - | - | - | - |
* Rain since midnight (hover to see other rain measurements)
** Current wind speed in m/s (hover to see current wind gust speed)